EW3148 Weather Reports


Display with metric or nautical units.
time (UTC)temp
F
wind
direction
speed
MPH
gust
MPH
rain 1hr
in
rain 24hr
in
rain mn
in
humidity
%
barometer
mb
20260509233834 87 129 3.0 10.0 0.00 0.03 0.03 47 1005.7
20260509232829 87 107 3.0 10.0 0.00 0.03 0.03 47 1005.7
20260509231815 88 101 5.0 10.0 0.00 0.03 0.03 48 1005.6
20260509230829 89 148 2.0 9.0 0.00 0.03 0.03 49 1005.6
20260509225813 90 123 2.0 8.0 0.00 0.03 0.03 51 1005.5
20260509224821 90 98 2.0 8.0 0.00 0.03 0.03 52 1005.5
20260509223845 90 79 1.0 6.0 0.00 0.03 0.03 52 1005.6
20260509221716 90 36 1.0 7.0 0.00 0.03 0.03 54 1005.5
20260509220648 89 117 1.0 6.0 0.00 0.03 0.03 55 1005.5
20260509215654 88 126 2.0 7.0 0.00 0.03 0.03 55 1005.5
20260509214712 87 136 2.0 7.0 0.00 0.03 0.03 56 1005.6
20260509213731 85 150 2.0 6.0 0.00 0.03 0.03 57 1005.8
20260509212732 84 144 4.0 14.0 0.00 0.03 0.03 57 1006.0
20260509210547 81 148 7.0 17.0 0.00 0.03 0.03 56 1006.4
20260509205551 87 119 5.0 17.0 0.00 0.03 0.03 47 1006.4
20260509204610 93 93 1.0 9.0 0.00 0.03 0.03 47 1006.5
20260509202444 93 294 3.0 9.0 0.00 0.03 0.03 49 1006.4
20260509201439 92 260 3.0 7.0 0.00 0.03 0.03 48 1006.6
20260509200411 92 269 1.0 6.0 0.00 0.03 0.03 50 1006.7
20260509195409 92 340 2.0 8.0 0.00 0.03 0.03 51 1006.7
20260509194336 92 246 2.0 10.0 0.00 0.03 0.03 50 1006.7
20260509193328 92 232 2.0 10.0 0.00 0.03 0.03 51 1007.0
20260509192322 91 257 3.0 8.0 0.00 0.03 0.03 53 1007.1
20260509191341 90 300 3.0 11.0 0.00 0.03 0.03 56 1007.1
20260509190316 91 17 1.0 11.0 0.00 0.03 0.03 54 1007.2
20260509185335 90 202 2.0 9.0 0.00 0.03 0.03 56 1007.5
20260509184310 89 187 2.0 10.0 0.00 0.03 0.03 57 1007.6
20260509183235 89 250 3.0 10.0 0.00 0.03 0.03 60 1007.9
20260509182218 88 173 1.0 8.0 0.00 0.03 0.03 59 1008.0
20260509181149 87 234 1.0 7.0 0.00 0.03 0.03 64 1008.1
20260509180137 88 267 1.0 7.0 0.00 0.03 0.03 63 1008.1
20260509175201 88 273 0.0 3.0 0.00 0.03 0.03 63 1008.3
20260509174207 87 348 1.0 5.0 0.00 0.03 0.03 65 1008.6
20260509173136 87 223 1.0 9.0 0.00 0.03 0.03 66 1008.6
20260509172134 86 197 2.0 9.0 0.00 0.03 0.03 68 1008.8
20260509171135 85 239 2.0 5.0 0.00 0.03 0.03 69 1008.7
20260509170114 85 238 1.0 6.0 0.00 0.03 0.03 71 1008.8
20260509162855 82 216 3.0 9.0 0.00 0.03 0.03 77 1008.9
20260509160749 80 273 2.0 8.0 0.00 0.03 0.03 83 1008.7
20260509155721 79 186 2.0 8.0 0.00 0.03 0.03 85 1008.9
20260509154703 78 242 1.0 6.0 0.00 0.03 0.03 90 1008.9
20260509153644 77 250 1.0 6.0 0.00 0.03 0.03 93 1009.0
20260509152634 75 242 3.0 9.0 0.00 0.03 0.03 94 1009.2
20260509151620 74 191 4.0 9.0 0.00 0.03 0.03 95 1009.2
20260509145453 73 159 3.0 9.0 0.00 0.03 0.03 95 1009.0
20260509144506 73 203 3.0 9.0 0.00 0.03 0.03 96 1008.7
20260509143510 73 195 1.0 8.0 0.00 0.03 0.03 96 1008.7
20260509142535 73 159 2.0 8.0 0.00 0.03 0.03 96 1008.4
20260509141535 73 189 3.0 9.0 0.00 0.03 0.03 96 1008.3
20260509140530 73 168 3.0 9.0 0.00 0.03 0.03 96 1008.2
20260509135509 73 168 0.0 3.0 0.00 0.03 0.03 96 1008.5
20260509134452 73 5 0.0 0.0 0.00 0.03 0.03 96 1008.6
20260509133504 73 5 0.0 2.0 0.00 0.03 0.03 96 1008.9
20260509132436 73 340 1.0 3.0 0.00 0.03 0.03 96 1009.0
20260509131459 73 19 0.0 5.0 0.00 0.03 0.03 96 1009.0
20260509130506 73 346 1.0 5.0 0.00 0.03 0.03 96 1008.6
20260509125444 73 308 1.0 4.0 0.00 0.03 0.03 96 1008.3
20260509124440 72 5 0.0 4.0 0.00 0.03 0.03 96 1008.4
20260509123413 72 5 0.0 1.0 0.00 0.03 0.03 96 1008.4
20260509121243 72 346 0.0 0.0 0.00 0.03 0.03 95 1008.5
20260509120243 72 346 0.0 1.0 0.00 0.03 0.03 95 1008.7
20260509115308 72 355 0.0 1.0 0.00 0.03 0.03 95 1008.6
20260509114317 72 319 0.0 4.0 0.00 0.03 0.03 95 1008.7
20260509113257 72 5 1.0 3.0 0.00 0.02 0.02 95 1009.3
20260509112251 72 41 0.0 7.0 0.00 0.02 0.02 95 1009.4
20260509111235 72 46 1.0 7.0 0.00 0.02 0.02 95 1009.4
20260509110205 72 43 1.0 5.0 0.00 0.02 0.02 95 1009.3
20260509105145 72 71 1.0 5.0 0.00 0.01 0.01 95 1009.5
20260509104135 73 5 0.0 3.0 0.00 0.01 0.01 95 1009.6
20260509101939 72 41 0.0 2.0 0.00 0.01 0.01 95 1009.0
20260509101002 72 96 0.0 1.0 0.00 0.01 0.01 95 1008.7
20260509095942 72 96 0.0 1.0 0.00 0.01 0.01 95 1008.5
20260509094957 72 96 0.0 2.0 0.00 0.01 0.01 95 1008.2
20260509094014 72 83 0.0 1.0 0.00 0.01 0.01 95 1008.1
20260509093014 72 83 0.0 0.0 0.00 0.01 0.01 94 1008.3
20260509092037 72 100 0.0 2.0 0.00 0.01 0.01 94 1008.0
20260509085920 72 80 0.0 0.0 0.00 0.00 0.00 94 1008.0
20260509084907 72 80 0.0 1.0 0.00 0.00 0.00 94 1008.2
20260509083850 73 49 0.0 2.0 0.00 0.00 0.00 94 1008.3
20260509082847 73 77 0.0 1.0 0.00 0.00 0.00 94 1008.4
20260509081840 73 76 0.0 0.0 0.00 0.00 0.00 94 1008.4
20260509075736 73 78 0.0 0.0 0.00 0.00 0.00 93 1008.3
20260509072431 73 125 0.0 4.0 0.00 0.00 0.00 93 1008.2
20260509071417 73 172 0.0 2.0 0.00 0.00 0.00 93 1008.3
20260509070442 73 180 0.0 3.0 0.00 0.00 0.00 93 1008.5
20260509065506 73 169 0.0 3.0 0.00 0.00 0.00 93 1008.6
20260509064440 73 150 2.0 7.0 0.00 0.00 0.00 93 1008.5
20260509063422 73 175 1.0 10.0 0.00 0.00 0.00 92 1008.2
20260509062445 73 182 2.0 10.0 0.00 0.00 0.00 92 1008.0
20260509061414 73 179 3.0 9.0 0.00 0.00 0.00 92 1008.1
20260509060351 73 186 2.0 13.0 0.00 0.00 0.00 92 1008.1
20260509055411 73 195 3.0 13.0 0.00 0.00 0.00 91 1008.1
20260509053317 73 217 4.0 11.0 0.00 0.00 0.00 92 1008.0
20260509052319 73 184 3.0 10.0 0.00 0.00 0.00 92 1008.2
20260509051311 73 159 2.0 8.0 0.00 0.00 0.00 92 1008.0
20260509050316 72 166 2.0 7.0 0.00 0.00 0.00 92 1007.8
20260509045307 72 140 1.0 5.0 0.00 0.00 0.00 91 1007.8
20260509044325 72 180 2.0 4.0 0.00 0.00 0.00 91 1007.7
20260509043328 73 174 2.0 6.0 0.00 0.00 0.00 91 1007.7
20260509042306 73 164 2.0 6.0 0.00 0.00 0.00 90 1007.8
20260509041306 73 132 3.0 7.0 0.00 0.00 0.00 90 1007.9
20260509040323 73 173 3.0 9.0 0.00 0.00 0.00 89 1008.1
20260509034131 74 179 3.0 6.0 0.00 0.00 0.00 88 1008.2
20260509033111 74 149 2.0 5.0 0.00 0.00 0.00 88 1008.2
20260509025740 74 170 3.0 7.0 0.00 0.00 0.00 87 1007.6
20260509024727 74 165 2.0 6.0 0.00 0.00 0.00 87 1007.7
20260509023731 74 157 1.0 4.0 0.00 0.00 0.00 86 1007.6
20260509022731 74 143 2.0 4.0 0.00 0.00 0.00 87 1007.7
20260509021722 74 181 1.0 6.0 0.00 0.00 0.00 86 1007.5
20260509020713 74 163 2.0 6.0 0.00 0.00 0.00 86 1007.3
20260509015723 74 112 2.0 7.0 0.00 0.00 0.00 85 1007.0
20260509014719 75 140 3.0 8.0 0.00 0.00 0.00 84 1006.8
20260509012620 76 98 2.0 7.0 0.00 0.00 0.00 83 1006.9
20260509011608 76 134 2.0 4.0 0.00 0.00 0.00 82 1006.8
20260509010622 76 149 1.0 8.0 0.00 0.00 0.00 82 1006.9
20260509005634 77 119 1.0 8.0 0.00 0.00 0.00 81 1006.9
20260509003515 77 171 2.0 6.0 0.00 0.00 0.00 79 1006.8
20260509002446 77 177 1.0 6.0 0.00 0.00 0.00 79 1006.8
20260509001428 78 118 2.0 6.0 0.00 0.00 0.00 78 1006.9